Starlink 4470

operational
NORAD ID: 53655 Int'l Des: 2022-105 Owner: SPXS Country: US Constellation: starlink
LEOCIRCULARRETROGRADESSO

Starlink 4470について

説明を読み込み中...

リアルタイム位置

3D地球を読み込み中...

次回通過

高度履歴

Altitude vs Time

uPlot chart will show altitude changes over time

軌道要素

1 53655U 22105H 25341.63571741 .00000559 00000-0 42916-4 0 9998
2 53655 97.6017 220.4372 0002281 91.9991 268.1497 15.05653239179448
Epoch: Dec 7, 2025 • Age: 14 hours

現在のステータス

高度 555.7 km
速度 7.58 km/s
衛星直下点 -13.81°S, 62.4°E
打ち上げ日 Aug 31, 2022
運用期間 3.2 years
タイプ internet

技術仕様

分類 Payload
質量 300.00 kg
乾燥質量 290.00 kg
総質量 300.00 kg
長さ 0.20 m
直径 2.80 m
スパン 9.00 m
形状 Box + pan
製造者 SPXS
バスタイプ Starlink
フェーズステータス In Orbit
所有者/国 SPXS/US

大規模コンステレーション

Loading constellations...